Meteopurmerend
purmerend
Purmerend - Baaienwijk



My webcam  My webcam


Onweer radar Meer informatie blitzortung!


Regen radar Meer informatie rain snow radar


Bezoek onze andere website:

CandyAppleRed WebdesignWebdesign Purmerend Candy Apple Red

MeteopurmerendBlog

Template documentation
and downloads



We konden geen weer-waarchuwingen ophalen. Ga rechtstreeks naar de Meteoalarm site : www.meteoalarm.eu en controleer daar .

15 daagse weersverwachting Leeds (GB)

  • Overzicht
  • Per uur
  • 15 dagen
  • Extra
  • Vergelijk
  • Kaarten
  • Dagkaart
  • Meer »
  • Info
  • Statistieken
  • Directe link
    Temp 6h Neerslag Wind  
 05:18     21:08    Daglengte: 15:50 Vandaag
13:00
16°
 
8
19:00
16°
 
6
 05:20     21:06    Daglengte: 15:46 Morgen
01:00
14°
 
3
07:00
13°
0.6 mm
2
13:00
15°
8.3 mm
4
19:00
16°
3.8 mm
3
 05:22     21:04    Daglengte: 15:42 Zaterdag 31 Jul
01:00
14°
 
3
07:00
14°
 
4
13:00
17°
5.8 mm
4
19:00
17°
39.5 mm
4
 05:23     21:03    Daglengte: 15:40 Zondag 01 Aug
01:00
14°
 
1
07:00
13°
 
2
Locatie info
Region: England
Latitude: 53.7948°N
Longitude: -1.5465°E
50 masl
Postcode: LS1 5
Temp/Neerslag /Baro Onweer/Dauwpunt
    Temp Baro 1h Neerslag Dauwpunt Wind UV Bewolking  
 05:18     21:08    Daglengte: 15:50 Vandaag
11:00
15°
1004.5 hPa
12%
11.9°
8
Windvlaag: 6.9 m/s
62%
12:00
15°
1004.8 hPa
68%
12.2°
8
Windvlaag: 5.9 m/s
64%
13:00
16°
1005.2 hPa
34%
12.3°
8
Windvlaag: 5.8 m/s
62%
14:00
16°
1005.3 hPa
16%
12.5°
8
Windvlaag: 5.2 m/s
61%
15:00
16°
1005.8 hPa
20%
12.6°
8
Windvlaag: 6.2 m/s
59%
16:00
16°
1006.0 hPa
55%
12.6°
8
Windvlaag: 6.2 m/s
67%
17:00
16°
1006.4 hPa
15%
12.9°
8
Windvlaag: 6.2 m/s
60%
18:00
16°
1006.5 hPa
18%
12.7°
7
Windvlaag: 5.8 m/s
51%
19:00
16°
1006.6 hPa
14%
12.8°
6
Windvlaag: 5.5 m/s
51%
20:00
15°
1006.6 hPa
13%
12.5°
6
Windvlaag: 4.6 m/s
53%
21:00
15°
1006.8 hPa
13%
12.3°
5
Windvlaag: 3 m/s
85%
22:00
15°
1006.9 hPa
18%
12.2°
4
Windvlaag: 3.7 m/s
75%
23:00
15°
1006.8 hPa
17%
12.2°
4
Windvlaag: 2.8 m/s
83%
 05:20     21:06    Daglengte: 15:46 Morgen
00:00
14°
1006.7 hPa
17%
12.4°
3
Windvlaag: 2.8 m/s
84%
01:00
14°
1006.3 hPa
15%
12.2°
3
Windvlaag: 2.7 m/s
81%
02:00
14°
1006.1 hPa
13%
12.2°
3
Windvlaag: 1.8 m/s
78%
03:00
14°
1005.6 hPa
27%
12.3°
2
Windvlaag: 0.5 m/s
83%
04:00
14°
1005.1 hPa
78%
12.2°
2
Windvlaag: 1.8 m/s
85%
05:00
13°
1004.7 hPa
78%
12.3°
1
Windvlaag: 1.7 m/s
85%
06:00
13°
1004.6 hPa 0.4 mm
78%
12.2°
1
Windvlaag: 2 m/s
85%
07:00
13°
1004.4 hPa 0.2 mm
80%
12.3°
2
Windvlaag: 1.3 m/s
86%
08:00
13°
1004.3 hPa 0.3 mm
80%
11.7°
1
Windvlaag: -0.5 m/s
86%
09:00
14°
1004.3 hPa 1.4 mm
82%
11.3°
2
Windvlaag: 0.4 m/s
86%
10:00
14°
1004.1 hPa 1.4 mm
82%
10.5°
3
Windvlaag: 0.1 m/s
86%
11:00
14°
1004.0 hPa 1.6 mm
82%
9.9°
3
Windvlaag: -0.8 m/s
84%
12:00
15°
1003.9 hPa 1.8 mm
82%
9.7°
3
Windvlaag: -1 m/s
84%
13:00
15°
1003.7 hPa 1.8 mm
82%
9.2°
4
Windvlaag: -0.6 m/s
86%
14:00
16°
1003.4 hPa 1.3 mm
82%
9.3°
4
Windvlaag: 0.4 m/s
85%
15:00
16°
1003.4 hPa 1.1 mm
82%
9.7°
4
Windvlaag: 0.3 m/s
84%
16:00
17°
1003.4 hPa
82%
10.5°
4
Windvlaag: 0.5 m/s
77%
17:00
17°
1003.7 hPa
82%
10.6°
3
Windvlaag: -3 m/s
81%
18:00
16°
1004.1 hPa
77%
10.4°
3
Windvlaag: -3.5 m/s
72%
19:00
16°
1004.3 hPa 1.4 mm
78%
10.6°
3
Windvlaag: -3.1 m/s
79%
20:00
15°
1004.7 hPa
82%
10.3°
3
Windvlaag: -1.5 m/s
82%
21:00
15°
1005.1 hPa
82%
10.8°
3
Windvlaag: 0.2 m/s
61%
22:00
15°
1005.4 hPa
82%
10.9°
3
Windvlaag: 2.3 m/s
78%
23:00
15°
1005.6 hPa
74%
11.2°
3
Windvlaag: 2 m/s
70%
 05:22     21:04    Daglengte: 15:42 Zaterdag 31 Jul
00:00
15°
1005.7 hPa
18%
11.3°
4
Windvlaag: 0.9 m/s
42%
01:00
14°
1005.8 hPa
15%
11.2°
3
Windvlaag: 0.2 m/s
60%
02:00
14°
1005.7 hPa
14%
11.4°
3
Windvlaag: 0.1 m/s
35%
03:00
14°
1005.6 hPa
14%
11.7°
3
Windvlaag: 0.4 m/s
29%
04:00
14°
1004.7 hPa
22%
12.1°
3
Windvlaag: 0.8 m/s
87%
05:00
14°
1004.7 hPa
22%
11.7°
3
Windvlaag: 0.9 m/s
63%
06:00
14°
1005.0 hPa
22%
11.7°
3
Windvlaag: -0 m/s
86%
07:00
14°
1005.2 hPa
22%
12.4°
4
Windvlaag: -0.6 m/s
79%
08:00
15°
1005.6 hPa
24%
13.3°
4
Windvlaag: 0.2 m/s
83%
09:00
16°
1006.0 hPa
30%
13.9°
4
Windvlaag: -0.3 m/s
78%
10:00
17°
1006.1 hPa
35%
13.9°
4
Windvlaag: -0.6 m/s
71%
11:00
18°
1006.1 hPa
39%
13.9°
4
Windvlaag: -1.3 m/s
79%
12:00
18°
1006.0 hPa 5.8 mm
37%
14.2°
3
Windvlaag: 0.4 m/s
97%
13:00
17°
1006.2 hPa
98%
14.3°
4
Windvlaag: -0.6 m/s
92%
14:00
18°
1006.4 hPa 6.3 mm
100%
15.1°
4
Windvlaag: -0.5 m/s
91%
15:00
17°
1006.4 hPa 9.8 mm
100%
16.4°
4
Windvlaag: 0.1 m/s
72%
16:00
17°
1006.3 hPa 10.9 mm
100%
16.6°
4
Windvlaag: 0.7 m/s
92%
17:00
17°
1006.4 hPa 12.5 mm
100%
15.6°
4
Windvlaag: -0.6 m/s
88%
18:00
16°
1006.4 hPa
95%
15.4°
4
Windvlaag: -0.2 m/s
82%
19:00
17°
1006.4 hPa
41%
14.3°
4
Windvlaag: 1.3 m/s
55%
20:00
16°
1006.7 hPa
32%
14.0°
4
Windvlaag: 0.8 m/s
60%
21:00
15°
1006.9 hPa
32%
12.8°
3
Windvlaag: 1.1 m/s
70%
22:00
14°
1007.2 hPa
32%
11.7°
4
Windvlaag: 1.3 m/s
74%
23:00
14°
1007.4 hPa
32%
11.8°
3
Windvlaag: 0.8 m/s
75%
 05:23     21:03    Daglengte: 15:40 Zondag 01 Aug
00:00
14°
1007.5 hPa
27%
11.7°
2
Windvlaag: 0.3 m/s
86%
01:00
14°
1007.4 hPa
29%
11.9°
1
Windvlaag: 0.5 m/s
98%
02:00
14°
1007.5 hPa
37%
12.4°
1
Windvlaag: 2.9 m/s
100%
03:00
14°
1007.5 hPa
85%
12.6°
1
Windvlaag: 5.7 m/s
100%
04:00
14°
1007.5 hPa
79%
12.0°
2
Windvlaag: 5.6 m/s
100%
05:00
14°
1007.6 hPa
39%
11.9°
2
Windvlaag: 4.5 m/s
100%
06:00
14°
1007.8 hPa
77%
12.1°
2
Windvlaag: 5.4 m/s
100%
07:00
13°
1008.2 hPa
42%
11.9°
2
Windvlaag: 4.8 m/s
100%
08:00
13°
1007.7 hPa 44.9 mm
100%
11.3°
3
Windvlaag: 5.2 m/s
100%
09:00
13°
1008.3 hPa 44.9 mm
100%
11.7°
3
Windvlaag: 5.4 m/s
100%
10:00
14°
1008.6 hPa 45.0 mm
100%
11.3°
2
Windvlaag: 4.4 m/s
100%
Temp/Neerslag /Baro Onweer/Dauwpunt
    Temp Baro Neerslag Dauwpunt Wind Bewolking  
 05:18     21:08    Daglengte: 15:50 Vandaag
13:00
16°
1005.2 hPa   12.3°
8
62%
16:00
16°
1006.0 hPa   12.6°
8
67%
19:00
16°
1006.6 hPa   12.8°
6
51%
22:00
15°
1006.9 hPa   12.2°
4
75%
 05:20     21:06    Daglengte: 15:46 Morgen
01:00
14°
1006.3 hPa   12.2°
3
81%
04:00
14°
1005.1 hPa   12.2°
2
85%
07:00
13°
1004.4 hPa 0.6 mm 12.3°
2
86%
10:00
14°
1004.1 hPa 3.1 mm 10.5°
3
86%
13:00
15°
1003.7 hPa 5.1 mm 9.2°
4
86%
16:00
17°
1003.4 hPa 2.4 mm 10.5°
4
77%
19:00
16°
1004.3 hPa 1.4 mm 10.6°
3
79%
22:00
15°
1005.4 hPa   10.9°
3
78%
 05:22     21:04    Daglengte: 15:42 Zaterdag 31 Jul
01:00
14°
1005.8 hPa   11.2°
3
60%
04:00
14°
1004.7 hPa   12.1°
3
87%
07:00
14°
1005.2 hPa   12.4°
4
79%
10:00
17°
1006.1 hPa   13.9°
4
71%
13:00
17°
1006.2 hPa 5.8 mm 14.3°
4
92%
16:00
17°
1006.3 hPa 27.0 mm 16.6°
4
92%
19:00
17°
1006.4 hPa 12.5 mm 14.3°
4
55%
22:00
14°
1007.2 hPa   11.7°
4
74%
 05:23     21:03    Daglengte: 15:40 Zondag 01 Aug
01:00
14°
1007.4 hPa   11.9°
1
98%
04:00
14°
1007.5 hPa   12.0°
2
100%
07:00
13°
1008.2 hPa   11.9°
2
100%
10:00
14°
1008.6 hPa 134.8 mm 11.3°
2
100%
13:00
16°
1009.2 hPa 135.6 mm 10.6°
4
100%
16:00
14°
1012.7 hPa 10.9 mm 10.0°
2
1%
19:00
13°
1013.3 hPa 11.1 mm 10.7°
2
1%
22:00
13°
1014.5 hPa 11.2 mm 9.5°
2
1%
 05:25     21:01    Daglengte: 15:36 Maandag 02 Aug
01:00
12°
1015.0 hPa 11.2 mm 8.7°
2
1%
04:00
10°
1015.3 hPa 11.2 mm 7.0°
2
1%
07:00
11°
1015.8 hPa 11.2 mm 6.9°
2
0%
10:00
15°
1016.0 hPa 11.2 mm 7.2°
3
0%
13:00
17°
1015.7 hPa 11.3 mm 5.7°
3
0%
16:00
17°
1016.2 hPa 11.3 mm 6.6°
2
1%
19:00
17°
1016.1 hPa 11.4 mm 6.7°
2
1%
22:00
15°
1016.7 hPa 11.4 mm 6.9°
1
1%
 05:27     20:59    Daglengte: 15:32 Dinsdag 03 Aug
01:00
14°
1016.9 hPa 11.4 mm 6.9°
1
1%
04:00
14°
1016.3 hPa 11.4 mm 7.0°
1
1%
07:00
13°
1016.8 hPa 11.4 mm 7.7°
2
1%
10:00
18°
1016.7 hPa 11.4 mm 6.2°
2
1%
13:00
21°
1015.5 hPa 11.4 mm 5.5°
3
1%
16:00
20°
1015.1 hPa 11.4 mm 5.8°
3
1%
19:00
19°
1015.1 hPa 11.4 mm 6.6°
3
1%
22:00
15°
1016.0 hPa 11.4 mm 8.3°
2
0%
 05:29     20:57    Daglengte: 15:28 Woensdag 04 Aug
01:00
14°
1016.1 hPa 11.4 mm 8.4°
1
0%
04:00
13°
1015.4 hPa 11.4 mm 8.1°
1
1%
07:00
14°
1015.9 hPa 11.4 mm 8.4°
1
1%
10:00
18°
1015.8 hPa 11.4 mm 8.2°
2
1%
13:00
21°
1015.1 hPa 11.5 mm 9.0°
3
1%
16:00
22°
1014.4 hPa 12.1 mm 9.4°
3
1%
19:00
20°
1014.5 hPa 12.4 mm 11.6°
3
1%
22:00
16°
1015.4 hPa 13.0 mm 11.9°
2
0%
 05:30     20:55    Daglengte: 15:25 Donderdag 05 Aug
01:00
14°
1015.4 hPa 13.0 mm 10.8°
2
0%
04:00
13°
1014.8 hPa 13.0 mm 9.9°
2
0%
07:00
14°
1014.6 hPa 13.0 mm 10.2°
1
1%
10:00
18°
1014.2 hPa   10.9°
2
1%
13:00
21°
1013.1 hPa 25.9 mm 10.2°
3
1%
19:00
17°
1011.8 hPa 27.5 mm 14.0°
2
1%
 05:32     20:53    Daglengte: 15:21 Vrijdag 06 Aug
01:00
16°
1011.4 hPa 29.6 mm 13.4°
1
1%
07:00
15°
1010.1 hPa 29.7 mm 13.1°
1
1%
13:00
20°
1008.6 hPa 30.8 mm 12.9°
3
1%
19:00
18°
1006.8 hPa 35.9 mm 13.6°
3
1%
 05:34     20:51    Daglengte: 15:17 Zaterdag 07 Aug
01:00
15°
1005.6 hPa 41.1 mm 13.4°
3
1%
07:00
14°
1003.4 hPa 43.2 mm 12.5°
2
1%
13:00
16°
1001.6 hPa 64.1 mm 13.3°
3
1%
19:00
17°
1000.2 hPa 73.7 mm 13.5°
2
1%
 05:35     20:49    Daglengte: 15:14 Zondag 08 Aug
01:00
14°
1001.7 hPa 79.1 mm 12.1°
2
1%
07:00
14°
1007.3 hPa 0.5 mm 11.3°
3
71%
13:00
18°
1008.0 hPa 1.3 mm 11.7°
4
78%
19:00
18°
1008.7 hPa 1.8 mm 11.6°
4
74%
 05:37     20:47    Daglengte: 15:10 Maandag 09 Aug
01:00
14°
1010.6 hPa 0.5 mm 10.9°
3
56%
07:00
13°
1011.4 hPa 0.4 mm 10.9°
2
54%
13:00
20°
1012.6 hPa 0.7 mm 11.3°
4
58%
19:00
19°
1012.9 hPa 1.5 mm 11.6°
3
57%
 05:39     20:45    Daglengte: 15:06 Dinsdag 10 Aug
01:00
14°
1014.7 hPa 0.2 mm 10.8°
2
48%
07:00
14°
1014.7 hPa 0.3 mm 11.0°
3
56%
13:00
20°
1014.9 hPa 0.4 mm 11.8°
4
59%
19:00
19°
1014.2 hPa 0.6 mm 12.2°
3
71%
 05:41     20:43    Daglengte: 15:02 Woensdag 11 Aug
01:00
14°
1014.8 hPa 0.4 mm 11.7°
3
59%
07:00
14°
1014.6 hPa 0.5 mm 12.0°
3
54%
13:00
20°
1014.9 hPa 0.4 mm 12.3°
4
68%
19:00
19°
1014.7 hPa 0.2 mm 12.6°
3
67%
 05:42     20:41    Daglengte: 14:59 Donderdag 12 Aug
01:00
14°
1015.9 hPa 0.2 mm 11.5°
2
59%
07:00
14°
1015.8 hPa 0.2 mm 11.5°
2
58%
13:00
20°
1015.5 hPa 0.7 mm 11.6°
3
65%
19:00
19°
1014.9 hPa 1.1 mm 12.1°
3
58%
 05:44     20:39    Daglengte: 14:55 Vrijdag 13 Aug
01:00
14°
1015.4 hPa 0.7 mm 11.2°
2
53%
07:00
14°
1015.1 hPa 0.9 mm 11.6°
2
64%
  CAPE Lifted Index Hail Supercell Tornado SRH 3km CL BTM PRES CL TOP PRES Swiss DWD icon SMHI TS
 05:18     21:08    Daglengte: 15:50 Vandaag
11:00 3 J/kg 3.1 K 0 % 0 % 0 % 0 m²/s² 0 0 6.04 3
12:00 5 J/kg 3.1 K 0 % 0 % 0 % 0 m²/s² 0 0 6.13 3
13:00 9 J/kg 3.3 K 0 % 0 % 0 % 0 m²/s² 0 0 5.73 3
14:00 9 J/kg 3.3 K 0 % 0 % 0 % 0 m²/s² 0 0 5.4 3
15:00 4 J/kg 3.3 K 0 % 0 % 0 % 0 m²/s² 0 0 5.22 3
16:00 7 J/kg 3.3 K 0 % 0 % 0 % 0 m²/s² 0 0 5.46 3
17:00 1 J/kg 3.1 K 0 % 0 % 0 % 0 m²/s² 0 0 5.14 3
18:00 3 J/kg 3.1 K 0 % 0 % 0 % 0 m²/s² 0 0 4.84 3
19:00 0 J/kg 3.2 K 0 % 0 % 0 % 0 m²/s² 0 0 5.12 3
20:00 0 J/kg 3.3 K 0 % 0 % 0 % 0 m²/s² 0 0 5.49 3
21:00 0 J/kg 4.1 K 0 % 0 % 0 % 0 m²/s² 0 0 6.5 3
22:00 0 J/kg 4.2 K 0 % 0 % 0 % 0 m²/s² 0 0 6.57 3
23:00 0 J/kg 4.2 K 0 % 0 % 0 % 0 m²/s² 0 0 7.2 3
 05:20     21:06    Daglengte: 15:46 Morgen
00:00 0 J/kg 4.1 K 0 % 0 % 0 % 0 m²/s² 0 0 7.46 3
01:00 0 J/kg 4.0 K 0 % 0 % 0 % 0 m²/s² 0 0 7.93 3
02:00 0 J/kg 4.3 K 0 % 0 % 0 % 0 m²/s² 0 0 7.39 3
03:00 0 J/kg 4.3 K 0 % 0 % 0 % 0 m²/s² 0 0 6.28 3
04:00 0 J/kg 4.3 K 0 % 0 % 0 % 0 m²/s² 0 0 5.74 61
05:00 0 J/kg 4.4 K 0 % 0 % 0 % 0 m²/s² 0 0 5.09 61
06:00 0 J/kg 4.3 K 0 % 0 % 0 % 0 m²/s² 0 0 4.54 61
07:00 0 J/kg 4.1 K 0 % 0 % 0 % 0 m²/s² 0 0 4.22 61
08:00 12 J/kg 4.1 K 0 % 0 % 0 % 0 m²/s² 0 0 4.19 61
09:00 16 J/kg 4.3 K 0 % 0 % 0 % 0 m²/s² 0 0 4.33 61
10:00 0 J/kg 4.3 K 0 % 0 % 0 % 0 m²/s² 0 0 4.42 61
11:00 27 J/kg 3.8 K 0 % 0 % 0 % 0 m²/s² 0 0 3.92 61
12:00 20 J/kg 3.9 K 0 % 0 % 0 % 0 m²/s² 0 0 4.77 61
13:00 3 J/kg 3.2 K 0 % 0 % 0 % 0 m²/s² 0 0 4.97 61
14:00 12 J/kg 2.1 K 0 % 0 % 0 % 0 m²/s² 0 0 4.59 61
15:00 62 J/kg 0.8 K 0 % 0 % 0 % 0 m²/s² 0 0 2.87 61
16:00 115 J/kg 0.3 K 0 % 0 % 0 % 0 m²/s² 0 0 2.01 61
17:00 145 J/kg 0.0 K 0 % 0 % 0 % 0 m²/s² 0 0 1.59 61
18:00 156 J/kg -0.3 K 0 % 0 % 0 % 0 m²/s² 0 0 0.51 3
19:00 232 J/kg -0.9 K 0 % 0 % 0 % 0 m²/s² 0 0 -0.21 61
20:00 191 J/kg -0.5 K 0 % 0 % 0 % 0 m²/s² 0 0 -0.32 80
21:00 182 J/kg -0.5 K 0 % 0 % 0 % 0 m²/s² 0 0 0.1 61
22:00 135 J/kg 0.1 K 0 % 0 % 0 % 0 m²/s² 0 0 0.73 61
23:00 79 J/kg 0.3 K 0 % 0 % 0 % 0 m²/s² 0 0 0.63 3
 05:22     21:04    Daglengte: 15:42 Zaterdag 31 Jul
00:00 105 J/kg 0.0 K 0 % 0 % 0 % 0 m²/s² 0 0 0.18 3
01:00 136 J/kg -0.1 K 0 % 0 % 0 % 0 m²/s² 0 0 0.02 3
02:00 110 J/kg 0.1 K 0 % 0 % 0 % 0 m²/s² 0 0 0.52 3
03:00 24 J/kg 1.1 K 0 % 0 % 0 % 0 m²/s² 0 0 1.7 3
04:00 0 J/kg 1.5 K 0 % 0 % 0 % 0 m²/s² 0 0 1.92 3
05:00 0 J/kg 1.6 K 0 % 0 % 0 % 0 m²/s² 0 0 1.84 3
06:00 0 J/kg 1.4 K 0 % 0 % 0 % 0 m²/s² 0 0 1.7 3
07:00 0 J/kg 1.3 K 0 % 0 % 0 % 0 m²/s² 0 0 1.72 3
08:00 0 J/kg 0.9 K 0 % 0 % 0 % 0 m²/s² 0 0 1.44 3
09:00 53 J/kg 0.8 K 0 % 0 % 0 % 0 m²/s² 0 0 1.4 2
10:00 145 J/kg 0.2 K 0 % 0 % 0 % 0 m²/s² 0 0 1.04 2
11:00 188 J/kg -0.1 K 0 % 0 % 0 % 0 m²/s² 0 0 0.77 2
12:00 180 J/kg -0.3 K 0 % 0 % 0 % 0 m²/s² 0 0 0.21 3
13:00 154 J/kg -0.3 K 0 % 0 % 0 % 0 m²/s² 0 0 0.03 3
14:00 135 J/kg -1.0 K 0 % 0 % 0 % 0 m²/s² 0 0 -1 80
15:00 75 J/kg -0.2 K 0 % 0 % 0 % 0 m²/s² 0 0 -0.17 3
16:00 126 J/kg -0.6 K 0 % 0 % 0 % 0 m²/s² 0 0 -0.6 80
17:00 128 J/kg -0.5 K 0 % 0 % 0 % 0 m²/s² 0 0 0.01 80
18:00 123 J/kg -0.8 K 0 % 0 % 0 % 0 m²/s² 0 0 -0.8 3
19:00 166 J/kg -0.8 K 0 % 0 % 0 % 0 m²/s² 0 0 0.49 2
20:00 0 J/kg 0.1 K 0 % 0 % 0 % 0 m²/s² 0 0 0.1 3
21:00 2 J/kg -0.7 K 0 % 0 % 0 % 0 m²/s² 0 0 1.61 3
22:00 0 J/kg -0.5 K 0 % 0 % 0 % 0 m²/s² 0 0 2.23 2
23:00 0 J/kg -0.2 K 0 % 0 % 0 % 0 m²/s² 0 0 2.8 2
 05:23     21:03    Daglengte: 15:40 Zondag 01 Aug
00:00 0 J/kg -0.1 K 0 % 0 % 0 % 0 m²/s² 0 0 2.72 3
01:00 0 J/kg 0.5 K 0 % 0 % 0 % 0 m²/s² 0 0 3.41 3
02:00 3 J/kg 1.2 K 0 % 0 % 0 % 0 m²/s² 0 0 4.02 3
03:00 4 J/kg 1.7 K 0 % 0 % 0 % 0 m²/s² 0 0 4.34 3
04:00 0 J/kg 2.1 K 0 % 0 % 0 % 0 m²/s² 0 0 5.07 3
05:00 5 J/kg 2.7 K 0 % 0 % 0 % 0 m²/s² 0 0 6.27 3
06:00 4 J/kg 3.2 K 0 % 0 % 0 % 0 m²/s² 0 0 7.49 3
07:00 1 J/kg 3.9 K 0 % 0 % 0 % 0 m²/s² 0 0 8.52 3
08:00 12 J/kg 4.1 K 0 % 0 % 0 % 0 m²/s² 0 0 8.48
09:00 49 J/kg 4.1 K 0 % 0 % 0 % 0 m²/s² 0 0 7.94
10:00 53 J/kg 4.0 K 0 % 0 % 0 % 0 m²/s² 0 0 7.57
Temp Baro Wind Neerslag
  EWN Forecast EWN WRFDA DWD ICON FMI HIRLAM MET Norway GFS
 05:18     21:08    Daglengte: 15:50 Vandaag
13:00 15.9° 1005.2 hPa 8.0 m/s 0.0 mm 16.4° 1004.9 hPa 8.2 m/s 0.2 mm 15.6° 1005.1 hPa 5.8 m/s -1.9 mm 15.7° 1006.1 hPa 8.9 m/s 0.0 mm 15.5° 1005.7 hPa 6.6 m/s
16:00 16.1° 1006.0 hPa 7.8 m/s 0.0 mm 17.5° 1005.5 hPa 8.8 m/s 0.2 mm 15.8° 1006.0 hPa 5.5 m/s 0.0 mm 15.6° 1006.7 hPa 8.0 m/s 0.0 mm 15.0° 1006.5 hPa 6.9 m/s
19:00 15.7° 1006.6 hPa 5.9 m/s 0.0 mm 17.0° 1005.7 hPa 7.3 m/s 0.2 mm 15.6° 1006.7 hPa 5.2 m/s 0.0 mm 15.1° 1007.6 hPa 5.5 m/s 0.0 mm 15.7° 1006.7 hPa 6.0 m/s
22:00 14.7° 1006.9 hPa 4.3 m/s 0.0 mm 15.5° 1006.2 hPa 4.7 m/s 0.2 mm 14.5° 1006.9 hPa 3.2 m/s 0.0 mm 14.8° 1008.0 hPa 4.2 m/s 0.0 mm 14.6° 1007.1 hPa 4.1 m/s
 05:20     21:06    Daglengte: 15:46 Morgen
01:00 14.4° 1006.3 hPa 3.3 m/s 0.0 mm 14.6° 1005.4 hPa 2.7 m/s 0.2 mm 13.8° 1006.2 hPa 1.6 m/s 0.0 mm 14.4° 1007.5 hPa 3.7 m/s 0.0 mm 13.4° 1006.4 hPa 2.0 m/s
04:00 13.8° 1005.1 hPa 1.6 m/s 0.0 mm 13.3° 1004.5 hPa 0.9 m/s 0.2 mm 13.1° 1004.9 hPa 0.5 m/s 0.1 mm 13.9° 1006.8 hPa 2.6 m/s 0.0 mm 12.6° 1005.3 hPa 0.6 m/s
07:00 13.2° 1004.4 hPa 1.6 m/s 0.6 mm 13.6° 1003.3 hPa 1.6 m/s 0.2 mm 12.9° 1003.9 hPa 0.8 m/s 0.8 mm 13.2° 1007.1 hPa 1.8 m/s 0.0 mm 13.5° 1004.4 hPa 1.6 m/s
10:00 13.9° 1004.1 hPa 2.6 m/s 3.1 mm 13.7° 1002.9 hPa 1.7 m/s 2.9 mm 12.9° 1003.0 hPa 2.8 m/s 4.4 mm 16.4° 1006.9 hPa 3.1 m/s 0.0 mm 13.2° 1004.0 hPa 2.5 m/s
13:00 15.2° 1003.7 hPa 3.5 m/s 5.1 mm 15.1° 1002.2 hPa 3.5 m/s 12.1 mm 13.9° 1002.4 hPa 3.6 m/s 2.9 mm 18.6° 1006.8 hPa 4.9 m/s 0.0 mm 13.1° 1003.1 hPa 3.3 m/s
16:00 16.8° 1003.4 hPa 3.8 m/s 2.4 mm 15.8° 1001.5 hPa 3.6 m/s 13.2 mm 15.3° 1002.6 hPa 4.0 m/s 0.9 mm 19.3° 1006.9 hPa 5.0 m/s 0.0 mm 12.6° 1002.7 hPa 2.7 m/s
19:00 15.9° 1004.3 hPa 3.1 m/s 1.4 mm 15.4° 1001.8 hPa 2.7 m/s 17.1 mm 15.6° 1003.5 hPa 3.1 m/s 0.2 mm 18.2° 1007.5 hPa 4.2 m/s 0.0 mm 14.2° 1003.3 hPa 2.7 m/s
22:00 14.9° 1005.4 hPa 2.6 m/s 0.0 mm 15.1° 1003.0 hPa 4.5 m/s 38.3 mm 14.7° 1004.6 hPa 2.0 m/s 0.6 mm 16.6° 1009.0 hPa 5.2 m/s 0.0 mm 13.2° 1004.0 hPa 3.0 m/s
 05:22     21:04    Daglengte: 15:42 Zaterdag 31 Jul
01:00 14.4° 1005.8 hPa 3.5 m/s 0.0 mm 14.9° 1003.8 hPa 2.7 m/s 46.9 mm 13.9° 1004.6 hPa 2.0 m/s 0.0 mm 15.6° 1009.0 hPa 3.6 m/s 0.0 mm 13.5° 1004.7 hPa 2.6 m/s
04:00 13.6° 1004.7 hPa 2.9 m/s 0.0 mm 13.7° 1003.4 hPa 2.7 m/s 47.7 mm 13.5° 1004.8 hPa 1.8 m/s 0.0 mm 12.6° 1005.1 hPa 2.0 m/s
07:00 14.4° 1005.2 hPa 3.7 m/s 0.0 mm 14.5° 1004.2 hPa 3.7 m/s 47.7 mm 14.7° 1005.3 hPa 2.5 m/s 0.0 mm 13.6° 1006.0 hPa 1.7 m/s
10:00 16.8° 1006.1 hPa 3.8 m/s 0.0 mm 16.9° 1004.8 hPa 4.2 m/s 48.7 mm 17.7° 1006.2 hPa 3.4 m/s 0.0 mm 14.4° 1007.2 hPa 1.2 m/s
13:00 17.4° 1006.2 hPa 3.7 m/s 5.8 mm 17.2° 1004.9 hPa 2.8 m/s 51.4 mm 18.9° 1006.3 hPa 3.6 m/s 0.1 mm 14.9° 1008.1 hPa 1.2 m/s
16:00 17.4° 1006.3 hPa 3.7 m/s 27.0 mm 15.9° 1005.6 hPa 2.2 m/s 79.7 mm 18.5° 1006.6 hPa 3.4 m/s 0.6 mm 18.0° 1007.9 hPa 4.0 m/s
19:00 17.0° 1006.4 hPa 3.8 m/s 12.5 mm 17.2° 1005.3 hPa 3.4 m/s 117.4 mm 18.1° 1006.6 hPa 3.3 m/s 0.3 mm 17.7° 1007.8 hPa 3.9 m/s
22:00 14.5° 1007.2 hPa 3.6 m/s 0.0 mm 15.5° 1006.4 hPa 3.8 m/s 131.1 mm 14.8° 1007.6 hPa 2.5 m/s 0.0 mm 14.2° 1009.0 hPa 2.3 m/s
 05:23     21:03    Daglengte: 15:40 Zondag 01 Aug
01:00 13.5° 1007.4 hPa 1.4 m/s 0.0 mm 14.4° 1006.4 hPa 3.3 m/s 133.0 mm 13.6° 1007.9 hPa 1.1 m/s 0.0 mm 12.9° 1009.2 hPa 2.4 m/s
04:00 13.8° 1007.5 hPa 1.5 m/s 0.0 mm 13.7° 1006.4 hPa 3.2 m/s 133.1 mm 13.8° 1007.7 hPa 1.1 m/s 0.0 mm 11.6° 1009.2 hPa 2.1 m/s
07:00 13.5° 1008.2 hPa 2.0 m/s 0.0 mm 13.0° 1007.2 hPa 2.9 m/s 133.7 mm 13.6° 1008.5 hPa 1.8 m/s 0.0 mm 12.2° 1009.7 hPa 1.9 m/s
10:00 14.3° 1008.6 hPa 2.2 m/s 134.8 mm 14.3° 1008.6 hPa 2.2 m/s 134.8 mm 13.9° 1010.6 hPa 2.0 m/s
13:00 16.3° 1009.2 hPa 4.2 m/s 135.6 mm 16.3° 1009.2 hPa 4.2 m/s 135.6 mm 13.5° 1011.9 hPa 2.6 m/s
16:00 13.6° 1012.7 hPa 1.9 m/s 10.9 mm 13.6° 1012.7 hPa 1.9 m/s 10.9 mm
19:00 13.3° 1013.3 hPa 2.0 m/s 11.1 mm 13.3° 1013.3 hPa 2.0 m/s 11.1 mm
22:00 12.5° 1014.5 hPa 2.0 m/s 11.2 mm 12.5° 1014.5 hPa 2.0 m/s 11.2 mm
 05:25     21:01    Daglengte: 15:36 Maandag 02 Aug
01:00 11.9° 1015.0 hPa 2.0 m/s 11.2 mm 11.9° 1015.0 hPa 2.0 m/s 11.2 mm
04:00 10.3° 1015.3 hPa 2.3 m/s 11.2 mm 10.3° 1015.3 hPa 2.3 m/s 11.2 mm
07:00 10.8° 1015.8 hPa 2.5 m/s 11.2 mm 10.8° 1015.8 hPa 2.5 m/s 11.2 mm
10:00 15.4° 1016.0 hPa 3.4 m/s 11.2 mm 15.4° 1016.0 hPa 3.4 m/s 11.2 mm
13:00 17.4° 1015.7 hPa 3.1 m/s 11.3 mm 17.4° 1015.7 hPa 3.1 m/s 11.3 mm
16:00 16.7° 1016.2 hPa 2.3 m/s 11.3 mm 16.7° 1016.2 hPa 2.3 m/s 11.3 mm
19:00 16.9° 1016.1 hPa 1.6 m/s 11.4 mm 16.9° 1016.1 hPa 1.6 m/s 11.4 mm
22:00 15.1° 1016.7 hPa 1.0 m/s 11.4 mm 15.1° 1016.7 hPa 1.0 m/s 11.4 mm
 05:27     20:59    Daglengte: 15:32 Dinsdag 03 Aug
01:00 14.3° 1016.9 hPa 0.9 m/s 11.4 mm 14.3° 1016.9 hPa 0.9 m/s 11.4 mm
04:00 13.8° 1016.3 hPa 0.8 m/s 11.4 mm 13.8° 1016.3 hPa 0.8 m/s 11.4 mm
07:00 13.4° 1016.8 hPa 1.6 m/s 11.4 mm 13.4° 1016.8 hPa 1.6 m/s 11.4 mm
10:00 17.7° 1016.7 hPa 2.2 m/s 11.4 mm 17.7° 1016.7 hPa 2.2 m/s 11.4 mm
13:00 20.8° 1015.5 hPa 2.6 m/s 11.4 mm 20.8° 1015.5 hPa 2.6 m/s 11.4 mm
16:00 20.3° 1015.1 hPa 2.9 m/s 11.4 mm 20.3° 1015.1 hPa 2.9 m/s 11.4 mm
19:00 19.2° 1015.1 hPa 2.8 m/s 11.4 mm 19.2° 1015.1 hPa 2.8 m/s 11.4 mm
22:00 15.3° 1016.0 hPa 1.7 m/s 11.4 mm 15.3° 1016.0 hPa 1.7 m/s 11.4 mm
 05:29     20:57    Daglengte: 15:28 Woensdag 04 Aug
01:00 13.9° 1016.1 hPa 1.4 m/s 11.4 mm 13.9° 1016.1 hPa 1.4 m/s 11.4 mm
04:00 13.1° 1015.4 hPa 1.3 m/s 11.4 mm 13.1° 1015.4 hPa 1.3 m/s 11.4 mm
07:00 14.1° 1015.9 hPa 1.1 m/s 11.4 mm 14.1° 1015.9 hPa 1.1 m/s 11.4 mm
10:00 18.2° 1015.8 hPa 2.2 m/s 11.4 mm 18.2° 1015.8 hPa 2.2 m/s 11.4 mm
13:00 21.0° 1015.1 hPa 3.1 m/s 11.5 mm 21.0° 1015.1 hPa 3.1 m/s 11.5 mm
16:00 21.8° 1014.4 hPa 3.0 m/s 12.1 mm 21.8° 1014.4 hPa 3.0 m/s 12.1 mm
19:00 20.1° 1014.5 hPa 3.0 m/s 12.4 mm 20.1° 1014.5 hPa 3.0 m/s 12.4 mm
22:00 15.9° 1015.4 hPa 2.2 m/s 13.0 mm 15.9° 1015.4 hPa 2.2 m/s 13.0 mm
 05:30     20:55    Daglengte: 15:25 Donderdag 05 Aug
01:00 14.2° 1015.4 hPa 1.8 m/s 13.0 mm 14.2° 1015.4 hPa 1.8 m/s 13.0 mm
04:00 13.3° 1014.8 hPa 1.5 m/s 13.0 mm 13.3° 1014.8 hPa 1.5 m/s 13.0 mm
07:00 14.1° 1014.6 hPa 0.9 m/s 13.0 mm 14.1° 1014.6 hPa 1.0 m/s 13.0 mm
10:00 18.2° 1014.2 hPa 1.5 m/s 13.0 mm 18.2° 1014.2 hPa 1.5 m/s 13.0 mm
13:00 21.3° 1013.1 hPa 3.1 m/s 13.0 mm 21.3° 1013.1 hPa 3.1 m/s 13.0 mm
19:00 17.5° 1011.8 hPa 1.7 m/s 14.4 mm 17.5° 1011.8 hPa 1.7 m/s 14.4 mm
 05:32     20:53    Daglengte: 15:21 Vrijdag 06 Aug
01:00 15.5° 1011.4 hPa 1.1 m/s 14.8 mm 15.5° 1011.4 hPa 1.1 m/s 14.8 mm
07:00 15.1° 1010.1 hPa 1.2 m/s 14.8 mm 15.1° 1010.1 hPa 1.2 m/s 14.8 mm
13:00 20.1° 1008.6 hPa 3.0 m/s 16.0 mm 20.1° 1008.6 hPa 3.0 m/s 16.0 mm
19:00 17.9° 1006.8 hPa 2.7 m/s 18.7 mm 17.9° 1006.8 hPa 2.7 m/s 18.7 mm
 05:34     20:51    Daglengte: 15:17 Zaterdag 07 Aug
01:00 14.9° 1005.6 hPa 2.7 m/s 20.6 mm 14.9° 1005.6 hPa 2.7 m/s 20.6 mm
07:00 13.8° 1003.4 hPa 1.9 m/s 22.4 mm 13.8° 1003.4 hPa 1.9 m/s 22.4 mm
13:00 15.6° 1001.6 hPa 2.7 m/s 34.1 mm 15.6° 1001.6 hPa 2.7 m/s 34.1 mm
19:00 17.0° 1000.2 hPa 1.8 m/s 38.0 mm 17.0° 1000.2 hPa 1.8 m/s 38.0 mm
 05:35     20:49    Daglengte: 15:14 Zondag 08 Aug
01:00 14.4° 1001.7 hPa 2.3 m/s 39.7 mm 14.4° 1001.7 hPa 2.3 m/s 39.7 mm
07:00 13.8° 1007.3 hPa 2.8 m/s 0.5 mm
13:00 18.5° 1008.0 hPa 4.1 m/s 1.3 mm
19:00 17.7° 1008.7 hPa 3.6 m/s 1.8 mm
 05:37     20:47    Daglengte: 15:10 Maandag 09 Aug
01:00 13.7° 1010.6 hPa 2.9 m/s 0.5 mm
07:00 13.4° 1011.4 hPa 2.4 m/s 0.4 mm
13:00 19.7° 1012.6 hPa 3.9 m/s 0.7 mm
19:00 18.7° 1012.9 hPa 3.0 m/s 1.5 mm
 05:39     20:45    Daglengte: 15:06 Dinsdag 10 Aug
01:00 13.8° 1014.7 hPa 2.5 m/s 0.2 mm
07:00 13.7° 1014.7 hPa 2.7 m/s 0.3 mm
13:00 20.0° 1014.9 hPa 4.3 m/s 0.4 mm
19:00 18.6° 1014.2 hPa 3.4 m/s 0.6 mm
 05:41     20:43    Daglengte: 15:02 Woensdag 11 Aug
01:00 14.4° 1014.8 hPa 2.8 m/s 0.4 mm
07:00 14.5° 1014.6 hPa 2.9 m/s 0.5 mm
13:00 20.2° 1014.9 hPa 3.8 m/s 0.4 mm
19:00 19.0° 1014.7 hPa 3.1 m/s 0.2 mm
 05:42     20:41    Daglengte: 14:59 Donderdag 12 Aug
01:00 14.3° 1015.9 hPa 2.0 m/s 0.2 mm
07:00 14.0° 1015.8 hPa 1.7 m/s 0.2 mm
13:00 19.5° 1015.5 hPa 2.8 m/s 0.7 mm
19:00 18.5° 1014.9 hPa 2.9 m/s 1.1 mm
 05:44     20:39    Daglengte: 14:55 Vrijdag 13 Aug
01:00 14.0° 1015.4 hPa 2.2 m/s 0.7 mm
07:00 14.1° 1015.1 hPa 2.0 m/s 0.9 mm
FMI Hirlam - 7.5 km EWN WRFDA - 12 km DWD ICON - 7 km GFS - 25 km Basiskaart






























































Updatetijd (Europe/Amsterdam) Resolutie Lengte Stap
FMI Hirlam 07:00, 13:00, 19:00, 01:00 7.5 km 49h 1h
EWN WRFDA 10:15, 16:15, 22:15, 04:15 12 km 73h 1h
DWD ICON 06:15, 12:15, 18:15, 00:15 7 km 75h 1h
GFS 08:15, 14:15, 20:15, 02:15 25 km 237h 3h
30+ mm
25-30 mm
20-25 mm
15-20 mm
10-15 mm
6-10 mm
4-6 mm
2-4 mm
1-2 mm
0.5-1 mm
0.2-0.5 mm
0.1-0.2 mm
30+ mm
25-30 mm
20-25 mm
15-20 mm
10-15 mm
6-10 mm
4-6 mm
2-4 mm
1-2 mm
0.5-1 mm
0.2-0.5 mm
0.1-0.2 mm
Sneeuwval
Natte sneeuw
Hagel
Vorst
30+ mm
25-30 mm
20-25 mm
15-20 mm
10-15 mm
6-10 mm
4-6 mm
2-4 mm
1-2 mm
0.5-1 mm
0.2-0.5 mm
0.1-0.2 mm
Sneeuwval
Natte sneeuw
Hagel
Vorst
Onweer
50 mm
40 mm
30 mm
26 mm
22 mm
18 mm
14 mm
10 mm
9 mm
8 mm
7 mm
6 mm
5 mm
4.5 mm
4 mm
3.5 mm
3 mm
2.5 mm
2 mm
1.5 mm
1 mm
0.8 mm
0.6 mm
0.4 mm
0.2 mm
0.05 mm
35°
30°
25°
20°
15°
10°
-5°
-10°
-15°
-20°
-25°
-30°
-35°
33> m/s
29 m/s
25 m/s
21 m/s
17 m/s
14 m/s
11 m/s
8 m/s
5 m/s
3 m/s
0 m/s
2600 J/kg
2400 J/kg
2200 J/kg
2000 J/kg
1800 J/kg
1600 J/kg
1400 J/kg
1200 J/kg
1000 J/kg
800 J/kg
600 J/kg
400 J/kg
200 J/kg
70 dBZ
65 dBZ
60 dBZ
55 dBZ
50 dBZ
45 dBZ
40 dBZ
35 dBZ
30 dBZ
25 dBZ
20 dBZ
15 dBZ
10 dBZ
5 dBZ
-1 K
-2 K
-3 K
-4 K
-5 K
-6 K
-7 K
-8 K
-9 K
950 m²/s²
900 m²/s²
850 m²/s²
800 m²/s²
750 m²/s²
700 m²/s²
650 m²/s²
600 m²/s²
550 m²/s²
500 m²/s²
450 m²/s²
400 m²/s²
350 m²/s²
300 m²/s²
250 m²/s²
200 m²/s²
150 m²/s²
100 m²/s²
46 m/s
44 m/s
42 m/s
40 m/s
38 m/s
36 m/s
34 m/s
32 m/s
30 m/s
28 m/s
26 m/s
24 m/s
22 m/s
20 m/s
16 m/s
12 m/s
8 m/s
4 m/s
30 m/s
28 m/s
26 m/s
24 m/s
22 m/s
20 m/s
18 m/s
16 m/s
14 m/s
12 m/s
10 m/s
8 m/s
6 m/s
4 m/s
2 m/s
3.0
2.8
2.6
2.4
2.2
2.0
1.8
1.6
1.4
1.2
1.0
0.8
0.6
0.4
0.2
15
14
13
12
11
10
9
8
7
6
5
4
3
2
1
90%
80%
70%
60%
50%
40%
30%
20%
10%
42
40
38
36
34
32
30
28
26
24
22
20
18
16
14
12
90+ cm
80-90 cm
70-80 cm
60-70 cm
50-60 cm
40-50 cm
30-40 cm
20-30 cm
10-20 cm
1-10 cm
Sneeuwval
Natte sneeuw
Regen
>120 mm
115 mm
110 mm
105 mm
100 mm
95 mm
90 mm
85 mm
80 mm
75 mm
70 mm
65 mm
60 mm
55 mm
50 mm
45 mm
45 mm
40 mm
35 mm
30 mm
25 mm
20 mm
15 mm
10 mm
5 mm
0.1 mm
960 hPa
880 hPa
800 hPa
720 hPa
640 hPa
560 hPa
584 gpdm
568 gpdm
552 gpdm
536 gpdm
520 gpdm
504 gpdm
488 gpdm
Extreem zwaar Noodweer Kans op onweer
15% 15% 5% 50% 15%